Time,TemperatureF,DewpointF,PressureIn,WindDirection,WindDirectionDegrees,WindSpeedMPH,WindSpeedGustMPH,Humidity,HourlyPrecipIn,Conditions,Clouds,dailyrainin,SoftwareType,DateUTC
2013-01-08 00:03:00,24.8,18.2,29.95,West,269,5.1,6.3,75,0.00,,,0.00,CWS Microserver 1.4,2013-01-08 06:03:00,
2013-01-08 00:08:00,23.8,16.9,29.95,WNW,283,4.4,5.9,74,0.00,,,0.00,CWS Microserver 1.4,2013-01-08 06:08:00,
2013-01-08 00:13:00,22.9,17.2,29.95,West,273,6.0,6.8,78,0.00,,,0.00,CWS Microserver 1.4,2013-01-08 06:13:00,
2013-01-08 00:18:00,22.9,17.5,29.94,West,268,5.3,7.8,79,0.00,,,0.00,CWS Microserver 1.4,2013-01-08 06:18:00,
2013-01-08 00:23:00,23.8,17.9,29.95,West,279,6.3,7.8,77,0.00,,,0.00,CWS Microserver 1.4,2013-01-08 06:23:00,
2013-01-08 00:28:00,23.4,17.2,29.95,West,276,6.9,7.0,76,0.00,,,0.00,CWS Microserver 1.4,2013-01-08 06:28:00,
2013-01-08 00:33:00,22.7,17.2,29.95,West,268,5.8,7.1,79,0.00,,,0.00,CWS Microserver 1.4,2013-01-08 06:33:00,
2013-01-08 00:43:00,23.4,17.1,29.95,West,270,4.0,6.3,76,0.00,,,0.00,CWS Microserver 1.4,2013-01-08 06:43:00,
2013-01-08 00:48:00,23.9,17.8,29.94,West,261,4.9,6.0,77,0.00,,,0.00,CWS Microserver 1.4,2013-01-08 06:48:00,
2013-01-08 00:53:00,25.0,17.8,29.94,West,265,4.9,5.6,73,0.00,,,0.00,CWS Microserver 1.4,2013-01-08 06:53:00,
2013-01-08 00:58:00,24.5,17.2,29.95,West,279,4.6,6.0,73,0.00,,,0.00,CWS Microserver 1.4,2013-01-08 06:58:00,
2013-01-08 01:03:00,24.5,17.8,29.95,West,276,5.5,6.1,75,0.00,,,0.00,CWS Microserver 1.4,2013-01-08 07:03:00,
2013-01-08 01:08:00,23.2,16.5,29.95,WNW,285,4.7,6.1,75,0.00,,,0.00,CWS Microserver 1.4,2013-01-08 07:08:00,
2013-01-08 01:13:00,24.3,18.5,29.94,West,265,6.4,7.5,78,0.00,,,0.00,CWS Microserver 1.4,2013-01-08 07:13:00,
2013-01-08 01:18:00,25.2,18.0,29.94,West,265,3.8,7.5,73,0.00,,,0.00,CWS Microserver 1.4,2013-01-08 07:18:00,
2013-01-08 01:23:00,24.5,17.4,29.95,WNW,286,4.6,7.3,74,0.00,,,0.00,CWS Microserver 1.4,2013-01-08 07:23:00,
2013-01-08 01:28:00,24.1,17.4,29.94,West,274,5.6,7.3,75,0.00,,,0.00,CWS Microserver 1.4,2013-01-08 07:28:00,
2013-01-08 01:33:00,24.3,17.9,29.94,WSW,253,4.7,7.3,76,0.00,,,0.00,CWS Microserver 1.4,2013-01-08 07:33:00,
2013-01-08 01:38:00,24.8,17.6,29.94,West,269,2.9,7.0,73,0.00,,,0.00,CWS Microserver 1.4,2013-01-08 07:38:00,
2013-01-08 01:43:00,24.5,17.6,29.94,West,269,4.6,5.2,74,0.00,,,0.00,CWS Microserver 1.4,2013-01-08 07:43:00,
2013-01-08 01:48:00,24.8,17.6,29.94,West,274,4.3,5.2,73,0.00,,,0.00,CWS Microserver 1.4,2013-01-08 07:48:00,
2013-01-08 01:53:00,24.8,17.1,29.94,SW,226,2.5,5.2,72,0.00,,,0.00,CWS Microserver 1.4,2013-01-08 07:53:00,
2013-01-08 01:58:00,23.9,16.5,29.94,SW,224,4.0,4.3,73,0.00,,,0.00,CWS Microserver 1.4,2013-01-08 07:58:00,
2013-01-08 02:03:00,23.2,16.3,29.94,WSW,257,3.6,4.2,74,0.00,,,0.00,CWS Microserver 1.4,2013-01-08 08:03:00,
2013-01-08 02:08:00,22.3,15.8,29.94,SW,229,1.0,4.2,75,0.00,,,0.00,CWS Microserver 1.4,2013-01-08 08:08:00,
2013-01-08 02:13:00,21.8,15.6,29.95,NNW,333,0.3,3.6,76,0.00,,,0.00,CWS Microserver 1.4,2013-01-08 08:13:00,
2013-01-08 02:18:00,21.2,15.4,29.94,South,171,1.5,1.9,77,0.00,,,0.00,CWS Microserver 1.4,2013-01-08 08:18:00,
2013-01-08 02:23:00,20.9,15.3,29.94,SSW,205,2.0,2.0,78,0.00,,,0.00,CWS Microserver 1.4,2013-01-08 08:23:00,
2013-01-08 02:28:00,21.4,16.3,29.94,SSW,203,2.7,3.7,80,0.00,,,0.00,CWS Microserver 1.4,2013-01-08 08:28:00,
2013-01-08 02:33:00,20.7,14.8,29.94,South,188,3.8,4.0,77,0.00,,,0.00,CWS Microserver 1.4,2013-01-08 08:33:00,
2013-01-08 02:38:00,19.8,14.6,29.94,SW,218,3.4,4.1,79,0.00,,,0.00,CWS Microserver 1.4,2013-01-08 08:38:00,
2013-01-08 02:43:00,20.3,15.9,29.94,SSW,205,2.6,4.4,82,0.00,,,0.00,CWS Microserver 1.4,2013-01-08 08:43:00,
2013-01-08 02:48:00,21.6,17.0,29.94,SSW,209,1.9,4.4,82,0.00,,,0.00,CWS Microserver 1.4,2013-01-08 08:48:00,
2013-01-08 02:53:00,21.8,16.4,29.94,WSW,239,0.2,3.0,79,0.00,,,0.00,CWS Microserver 1.4,2013-01-08 08:53:00,
2013-01-08 02:58:00,21.6,17.1,29.93,WSW,238,3.5,3.6,82,0.00,,,0.00,CWS Microserver 1.4,2013-01-08 08:58:00,
2013-01-08 03:03:00,21.6,15.8,29.93,WSW,246,2.1,3.6,78,0.00,,,0.00,CWS Microserver 1.4,2013-01-08 09:03:00,
2013-01-08 03:08:00,20.9,15.4,29.93,SW,232,2.3,3.5,79,0.00,,,0.00,CWS Microserver 1.4,2013-01-08 09:08:00,
2013-01-08 03:13:00,20.9,16.6,29.93,SW,223,2.6,3.5,83,0.00,,,0.00,CWS Microserver 1.4,2013-01-08 09:13:00,
2013-01-08 03:18:00,22.3,17.5,29.93,SSW,198,1.7,4.0,81,0.00,,,0.00,CWS Microserver 1.4,2013-01-08 09:18:00,
2013-01-08 03:23:00,23.2,18.5,29.93,South,184,3.9,4.2,81,0.00,,,0.00,CWS Microserver 1.4,2013-01-08 09:23:00,
2013-01-08 03:28:00,23.9,18.1,29.93,South,176,4.4,5.1,78,0.00,,,0.00,CWS Microserver 1.4,2013-01-08 09:28:00,
2013-01-08 03:33:00,24.7,18.1,29.93,South,185,3.4,5.1,75,0.00,,,0.00,CWS Microserver 1.4,2013-01-08 09:33:00,
2013-01-08 03:38:00,23.0,14.3,29.93,SSW,203,1.0,4.9,69,0.00,,,0.00,CWS Microserver 1.4,2013-01-08 09:38:00,
2013-01-08 03:43:00,21.1,14.6,29.93,SSW,203,2.4,3.7,75,0.00,,,0.00,CWS Microserver 1.4,2013-01-08 09:43:00,
2013-01-08 03:48:00,20.9,15.4,29.93,South,178,3.9,4.2,79,0.00,,,0.00,CWS Microserver 1.4,2013-01-08 09:48:00,
2013-01-08 03:53:00,20.3,15.0,29.93,SSE,163,4.0,4.7,79,0.00,,,0.00,CWS Microserver 1.4,2013-01-08 09:53:00,
2013-01-08 03:58:00,19.1,13.8,29.92,SSE,164,3.8,4.8,79,0.00,,,0.00,CWS Microserver 1.4,2013-01-08 09:58:00,
2013-01-08 04:03:00,17.8,12.7,29.92,South,175,4.4,4.8,80,0.00,,,0.00,CWS Microserver 1.4,2013-01-08 10:03:00,
2013-01-08 04:08:00,16.9,12.2,29.92,South,174,3.8,5.0,81,0.00,,,0.00,CWS Microserver 1.4,2013-01-08 10:08:00,
2013-01-08 04:13:00,16.9,12.9,29.91,South,175,4.4,5.0,83,0.00,,,0.00,CWS Microserver 1.4,2013-01-08 10:13:00,
2013-01-08 04:18:00,16.2,12.1,29.91,SSE,163,3.8,4.8,83,0.00,,,0.00,CWS Microserver 1.4,2013-01-08 10:18:00,
2013-01-08 04:23:00,15.8,12.0,29.91,SSE,154,5.2,6.5,84,0.00,,,0.00,CWS Microserver 1.4,2013-01-08 10:23:00,
2013-01-08 04:28:00,16.9,13.3,29.91,SSE,164,5.7,6.6,85,0.00,,,0.00,CWS Microserver 1.4,2013-01-08 10:28:00,
2013-01-08 04:33:00,15.7,11.8,29.91,South,183,6.3,6.6,84,0.00,,,0.00,CWS Microserver 1.4,2013-01-08 10:33:00,
2013-01-08 04:38:00,16.6,13.6,29.91,South,191,4.4,7.2,87,0.00,,,0.00,CWS Microserver 1.4,2013-01-08 10:38:00,
2013-01-08 04:43:00,17.5,13.9,29.91,South,190,5.2,7.3,85,0.00,,,0.00,CWS Microserver 1.4,2013-01-08 10:43:00,
2013-01-08 04:48:00,17.1,13.0,29.91,SSW,196,4.6,7.3,83,0.00,,,0.00,CWS Microserver 1.4,2013-01-08 10:48:00,
2013-01-08 04:53:00,16.4,12.7,29.91,SSW,196,3.0,7.3,85,0.00,,,0.00,CWS Microserver 1.4,2013-01-08 10:53:00,
2013-01-08 05:03:00,16.2,12.5,29.91,SSE,166,3.6,5.9,85,0.00,,,0.00,CWS Microserver 1.4,2013-01-08 11:03:00,
2013-01-08 05:08:00,15.3,11.7,29.91,South,181,6.6,7.4,85,0.00,,,0.00,CWS Microserver 1.4,2013-01-08 11:08:00,
2013-01-08 05:13:00,15.5,12.4,29.90,SSW,192,4.3,7.5,87,0.00,,,0.00,CWS Microserver 1.4,2013-01-08 11:13:00,
2013-01-08 05:18:00,16.4,13.5,29.90,SSW,199,5.8,7.5,88,0.00,,,0.00,CWS Microserver 1.4,2013-01-08 11:18:00,
2013-01-08 05:23:00,16.4,13.3,29.90,South,189,6.1,9.3,87,0.00,,,0.00,CWS Microserver 1.4,2013-01-08 11:23:00,
2013-01-08 05:28:00,16.4,13.2,29.90,SSW,195,6.5,9.3,87,0.00,,,0.00,CWS Microserver 1.4,2013-01-08 11:28:00,
2013-01-08 05:33:00,16.2,12.9,29.90,South,189,4.6,8.4,86,0.00,,,0.00,CWS Microserver 1.4,2013-01-08 11:33:00,
2013-01-08 05:38:00,16.9,14.0,29.90,SSW,197,5.9,8.4,88,0.00,,,0.00,CWS Microserver 1.4,2013-01-08 11:38:00,
2013-01-08 05:48:00,18.5,15.9,29.90,South,191,9.1,9.8,89,0.00,,,0.00,CWS Microserver 1.4,2013-01-08 11:48:00,
2013-01-08 05:53:00,19.1,16.1,29.90,South,191,6.6,10.4,87,0.00,,,0.00,CWS Microserver 1.4,2013-01-08 11:53:00,
2013-01-08 05:58:00,18.9,15.7,29.90,South,181,8.1,10.4,87,0.00,,,0.00,CWS Microserver 1.4,2013-01-08 11:58:00,
2013-01-08 06:03:00,18.7,15.7,29.90,South,182,6.6,10.6,87,0.00,,,0.00,CWS Microserver 1.4,2013-01-08 12:03:00,
2013-01-08 06:08:00,18.7,16.1,29.90,South,172,8.5,10.6,89,0.00,,,0.00,CWS Microserver 1.4,2013-01-08 12:08:00,
2013-01-08 06:13:00,18.0,15.0,29.90,South,177,6.5,10.3,87,0.00,,,0.00,CWS Microserver 1.4,2013-01-08 12:13:00,
2013-01-08 06:18:00,17.6,15.1,29.90,South,172,7.3,9.4,89,0.00,,,0.00,CWS Microserver 1.4,2013-01-08 12:18:00,
2013-01-08 06:23:00,17.8,15.1,29.90,South,173,4.0,8.3,88,0.00,,,0.00,CWS Microserver 1.4,2013-01-08 12:23:00,
2013-01-08 06:28:00,17.8,15.1,29.90,SSE,162,4.0,8.1,89,0.00,,,0.00,CWS Microserver 1.4,2013-01-08 12:28:00,
2013-01-08 06:33:00,18.4,16.1,29.89,SSE,168,7.4,8.0,90,0.00,,,0.00,CWS Microserver 1.4,2013-01-08 12:33:00,
2013-01-08 06:43:00,17.6,15.0,29.89,South,182,6.6,9.0,89,0.00,,,0.00,CWS Microserver 1.4,2013-01-08 12:43:00,
2013-01-08 06:48:00,17.5,15.1,29.89,SSE,167,5.8,9.0,90,0.00,,,0.00,CWS Microserver 1.4,2013-01-08 12:48:00,
2013-01-08 06:53:00,17.3,15.0,29.89,South,175,6.8,7.4,90,0.00,,,0.00,CWS Microserver 1.4,2013-01-08 12:53:00,
2013-01-08 06:58:00,18.7,16.8,29.88,SSE,165,7.1,9.7,92,0.00,,,0.00,CWS Microserver 1.4,2013-01-08 12:58:00,
2013-01-08 07:03:00,18.9,16.7,29.88,South,177,6.4,9.7,91,0.00,,,0.00,CWS Microserver 1.4,2013-01-08 13:03:00,
2013-01-08 07:08:00,18.0,15.5,29.89,South,171,6.5,9.3,89,0.00,,,0.00,CWS Microserver 1.4,2013-01-08 13:08:00,
2013-01-08 07:13:00,18.2,16.0,29.88,South,183,5.7,7.3,90,0.00,,,0.00,CWS Microserver 1.4,2013-01-08 13:13:00,
2013-01-08 07:18:00,18.7,16.7,29.88,South,180,7.8,8.7,91,0.00,,,0.00,CWS Microserver 1.4,2013-01-08 13:18:00,
2013-01-08 07:23:00,19.1,17.0,29.88,South,179,8.0,9.6,91,0.00,,,0.00,CWS Microserver 1.4,2013-01-08 13:23:00,
2013-01-08 07:28:00,18.9,16.7,29.88,SSW,193,7.6,9.6,90,0.00,,,0.00,CWS Microserver 1.4,2013-01-08 13:28:00,
2013-01-08 07:33:00,18.9,16.5,29.88,South,185,7.0,9.5,90,0.00,,,0.00,CWS Microserver 1.4,2013-01-08 13:33:00,
2013-01-08 07:38:00,18.5,16.1,29.89,SSW,197,8.4,9.7,90,0.00,,,0.00,CWS Microserver 1.4,2013-01-08 13:38:00,
2013-01-08 07:43:00,18.2,15.8,29.88,South,183,6.9,9.7,90,0.00,,,0.00,CWS Microserver 1.4,2013-01-08 13:43:00,
2013-01-08 07:48:00,18.0,15.7,29.88,South,175,7.5,8.6,90,0.00,,,0.00,CWS Microserver 1.4,2013-01-08 13:48:00,
2013-01-08 07:53:00,18.2,15.8,29.88,South,170,7.2,9.5,90,0.00,,,0.00,CWS Microserver 1.4,2013-01-08 13:53:00,
2013-01-08 07:58:00,17.6,15.2,29.87,South,172,4.6,9.5,90,0.00,,,0.00,CWS Microserver 1.4,2013-01-08 13:58:00,
2013-01-08 08:03:00,16.9,14.0,29.87,SSE,154,4.4,7.2,88,0.00,,,0.00,CWS Microserver 1.4,2013-01-08 14:03:00,
2013-01-08 08:08:00,15.5,12.5,29.87,South,169,5.7,6.7,87,0.00,,,0.00,CWS Microserver 1.4,2013-01-08 14:08:00,
2013-01-08 08:13:00,15.7,13.4,29.87,South,172,6.5,8.7,90,0.00,,,0.00,CWS Microserver 1.4,2013-01-08 14:13:00,
2013-01-08 08:18:00,15.3,12.6,29.87,South,184,5.3,8.7,88,0.00,,,0.00,CWS Microserver 1.4,2013-01-08 14:18:00,
2013-01-08 08:23:00,14.6,11.7,29.87,SSE,162,5.4,7.9,88,0.00,,,0.00,CWS Microserver 1.4,2013-01-08 14:23:00,
2013-01-08 08:28:00,14.4,11.6,29.87,SSE,157,7.6,9.4,88,0.00,,,0.00,CWS Microserver 1.4,2013-01-08 14:28:00,
2013-01-08 08:33:00,13.3,10.7,29.87,SSE,161,8.5,9.4,89,0.00,,,0.00,CWS Microserver 1.4,2013-01-08 14:33:00,
2013-01-08 08:38:00,14.2,12.1,29.87,SSE,161,5.4,10.6,91,0.00,,,0.00,CWS Microserver 1.4,2013-01-08 14:38:00,
2013-01-08 08:43:00,14.4,12.0,29.87,SSE,163,9.7,10.6,90,0.00,,,0.00,CWS Microserver 1.4,2013-01-08 14:43:00,
2013-01-08 08:48:00,14.4,11.8,29.87,SSE,160,8.7,10.5,89,0.00,,,0.00,CWS Microserver 1.4,2013-01-08 14:48:00,
2013-01-08 08:53:00,14.9,12.5,29.87,SSE,162,9.1,10.4,89,0.00,,,0.00,CWS Microserver 1.4,2013-01-08 14:53:00,
2013-01-08 08:58:00,14.9,12.2,29.86,SSE,161,9.2,10.9,88,0.00,,,0.00,CWS Microserver 1.4,2013-01-08 14:58:00,
2013-01-08 09:03:00,14.9,12.3,29.86,SSE,163,10.5,11.2,89,0.00,,,0.00,CWS Microserver 1.4,2013-01-08 15:03:00,
2013-01-08 09:08:00,15.5,12.9,29.86,SSE,154,8.1,11.2,89,0.00,,,0.00,CWS Microserver 1.4,2013-01-08 15:08:00,
2013-01-08 09:13:00,16.0,13.5,29.85,SSE,158,10.1,12.2,89,0.00,,,0.00,CWS Microserver 1.4,2013-01-08 15:13:00,
2013-01-08 09:18:00,16.7,14.2,29.85,SSE,165,12.1,13.6,89,0.00,,,0.00,CWS Microserver 1.4,2013-01-08 15:18:00,
2013-01-08 09:23:00,17.1,14.4,29.85,South,173,13.1,14.7,89,0.00,,,0.00,CWS Microserver 1.4,2013-01-08 15:23:00,
2013-01-08 09:28:00,17.5,15.0,29.85,SSE,167,8.6,14.7,89,0.00,,,0.00,CWS Microserver 1.4,2013-01-08 15:28:00,
2013-01-08 09:38:00,18.7,16.1,29.86,South,180,10.8,14.6,89,0.00,,,0.00,CWS Microserver 1.4,2013-01-08 15:38:00,
2013-01-08 09:43:00,18.7,16.0,29.86,South,184,8.3,13.4,89,0.00,,,0.00,CWS Microserver 1.4,2013-01-08 15:43:00,
2013-01-08 09:48:00,18.9,16.1,29.86,South,181,8.0,12.4,88,0.00,,,0.00,CWS Microserver 1.4,2013-01-08 15:48:00,
2013-01-08 09:53:00,18.9,16.1,29.86,SSE,162,8.2,13.8,88,0.00,,,0.00,CWS Microserver 1.4,2013-01-08 15:53:00,
2013-01-08 09:58:00,18.7,15.9,29.86,SSE,167,8.5,14.1,88,0.00,,,0.00,CWS Microserver 1.4,2013-01-08 15:58:00,
2013-01-08 10:03:00,18.7,15.8,29.85,South,174,9.8,14.1,88,0.00,,,0.00,CWS Microserver 1.4,2013-01-08 16:03:00,
2013-01-08 10:08:00,19.1,16.4,29.85,SSE,165,10.8,13.1,88,0.00,,,0.00,CWS Microserver 1.4,2013-01-08 16:08:00,
2013-01-08 10:13:00,19.4,16.6,29.85,SSE,159,9.6,12.9,88,0.00,,,0.00,CWS Microserver 1.4,2013-01-08 16:13:00,
2013-01-08 10:18:00,20.0,17.3,29.85,SSE,165,9.1,14.2,89,0.00,,,0.00,CWS Microserver 1.4,2013-01-08 16:18:00,
2013-01-08 10:23:00,20.3,17.6,29.84,South,171,10.7,14.2,88,0.00,,,0.00,CWS Microserver 1.4,2013-01-08 16:23:00,
2013-01-08 10:28:00,20.7,18.0,29.83,SSE,165,8.5,13.4,89,0.00,,,0.00,CWS Microserver 1.4,2013-01-08 16:28:00,
2013-01-08 10:33:00,21.1,18.3,29.83,SSE,168,9.6,13.4,88,0.00,,,0.00,CWS Microserver 1.4,2013-01-08 16:33:00,
2013-01-08 10:38:00,21.2,18.5,29.83,South,169,5.2,13.4,89,0.00,,,0.00,CWS Microserver 1.4,2013-01-08 16:38:00,
2013-01-08 10:43:00,21.8,19.3,29.83,SSE,162,4.7,11.9,89,0.00,,,0.00,CWS Microserver 1.4,2013-01-08 16:43:00,
2013-01-08 10:48:00,21.8,19.2,29.82,South,169,10.2,12.5,89,0.00,,,0.00,CWS Microserver 1.4,2013-01-08 16:48:00,
2013-01-08 10:53:00,22.0,19.4,29.82,South,174,7.6,13.7,89,0.00,,,0.00,CWS Microserver 1.4,2013-01-08 16:53:00,
2013-01-08 10:58:00,22.0,19.3,29.82,South,169,14.1,14.6,89,0.00,,,0.00,CWS Microserver 1.4,2013-01-08 16:58:00,
2013-01-08 11:08:00,22.1,19.5,29.81,South,174,7.3,15.4,89,0.00,,,0.00,CWS Microserver 1.4,2013-01-08 17:08:00,
2013-01-08 11:13:00,22.7,20.2,29.81,South,170,7.2,15.4,89,0.00,,,0.00,CWS Microserver 1.4,2013-01-08 17:13:00,
2013-01-08 11:18:00,23.0,20.5,29.80,South,186,13.6,17.7,90,0.00,,,0.00,CWS Microserver 1.4,2013-01-08 17:18:00,
2013-01-08 11:23:00,23.2,20.6,29.80,SSE,168,7.0,17.7,89,0.00,,,0.00,CWS Microserver 1.4,2013-01-08 17:23:00,
2013-01-08 11:28:00,23.6,21.0,29.80,South,178,14.4,15.8,89,0.00,,,0.00,CWS Microserver 1.4,2013-01-08 17:28:00,
2013-01-08 11:33:00,23.9,21.3,29.80,SSW,197,10.4,14.5,89,0.00,,,0.00,CWS Microserver 1.4,2013-01-08 17:33:00,
2013-01-08 11:38:00,24.3,21.7,29.80,SSW,196,12.7,14.5,89,0.00,,,0.00,CWS Microserver 1.4,2013-01-08 17:38:00,
2013-01-08 11:43:00,24.3,21.6,29.78,South,171,10.9,16.5,89,0.00,,,0.00,CWS Microserver 1.4,2013-01-08 17:43:00,
2013-01-08 11:48:00,24.3,21.5,29.78,South,178,17.2,19.8,88,0.00,,,0.00,CWS Microserver 1.4,2013-01-08 17:48:00,
2013-01-08 11:53:00,24.5,21.6,29.79,SSW,196,8.3,19.8,88,0.00,,,0.00,CWS Microserver 1.4,2013-01-08 17:53:00,
2013-01-08 12:03:00,24.7,21.4,29.78,SSW,193,10.9,15.3,86,0.00,,,0.00,CWS Microserver 1.4,2013-01-08 18:03:00,
2013-01-08 12:08:00,24.8,21.3,29.78,SSW,193,9.4,14.4,86,0.00,,,0.00,CWS Microserver 1.4,2013-01-08 18:08:00,
2013-01-08 12:13:00,25.2,21.6,29.77,SSW,195,8.1,14.4,86,0.00,,,0.00,CWS Microserver 1.4,2013-01-08 18:13:00,
2013-01-08 12:18:00,25.4,21.7,29.77,SSW,197,8.6,13.0,85,0.00,,,0.00,CWS Microserver 1.4,2013-01-08 18:18:00,
2013-01-08 12:23:00,25.9,22.1,29.77,South,182,6.1,12.3,85,0.00,,,0.00,CWS Microserver 1.4,2013-01-08 18:23:00,
2013-01-08 12:28:00,26.5,22.4,29.77,South,190,10.4,12.3,84,0.00,,,0.00,CWS Microserver 1.4,2013-01-08 18:28:00,
2013-01-08 12:33:00,26.8,22.4,29.77,SSW,195,9.9,13.0,83,0.00,,,0.00,CWS Microserver 1.4,2013-01-08 18:33:00,
2013-01-08 12:38:00,27.0,22.5,29.76,South,187,6.6,14.2,82,0.00,,,0.00,CWS Microserver 1.4,2013-01-08 18:38:00,
2013-01-08 12:43:00,27.4,22.9,29.75,South,178,10.4,14.2,83,0.00,,,0.00,CWS Microserver 1.4,2013-01-08 18:43:00,
2013-01-08 12:48:00,27.5,22.9,29.75,South,190,9.5,12.3,82,0.00,,,0.00,CWS Microserver 1.4,2013-01-08 18:48:00,
2013-01-08 12:53:00,27.9,23.7,29.75,South,178,8.0,12.3,84,0.00,,,0.00,CWS Microserver 1.4,2013-01-08 18:53:00,
2013-01-08 12:58:00,28.4,24.2,29.75,South,187,8.1,13.2,84,0.00,,,0.00,CWS Microserver 1.4,2013-01-08 18:58:00,
2013-01-08 13:03:00,28.8,24.5,29.74,SSW,192,11.2,14.5,83,0.00,,,0.00,CWS Microserver 1.4,2013-01-08 19:03:00,
2013-01-08 13:08:00,29.0,24.5,29.75,SSW,193,11.8,15.6,83,0.00,,,0.00,CWS Microserver 1.4,2013-01-08 19:08:00,
2013-01-08 13:13:00,29.2,24.5,29.75,SW,225,3.6,15.6,82,0.00,,,0.00,CWS Microserver 1.4,2013-01-08 19:13:00,
2013-01-08 13:18:00,29.3,24.6,29.75,SSW,201,11.9,15.3,82,0.00,,,0.00,CWS Microserver 1.4,2013-01-08 19:18:00,
2013-01-08 13:28:00,29.5,24.7,29.73,South,181,10.6,16.6,82,0.00,,,0.00,CWS Microserver 1.4,2013-01-08 19:28:00,
2013-01-08 13:33:00,29.5,24.8,29.73,SSW,192,10.2,16.7,82,0.00,,,0.00,CWS Microserver 1.4,2013-01-08 19:33:00,
2013-01-08 13:38:00,29.7,25.0,29.74,SSW,211,11.2,16.7,82,0.00,,,0.00,CWS Microserver 1.4,2013-01-08 19:38:00,
2013-01-08 13:43:00,29.9,25.0,29.74,SSW,206,7.4,16.8,81,0.00,,,0.00,CWS Microserver 1.4,2013-01-08 19:43:00,
2013-01-08 13:48:00,30.1,25.4,29.74,SSW,203,8.3,16.8,82,0.00,,,0.00,CWS Microserver 1.4,2013-01-08 19:48:00,
2013-01-08 13:53:00,30.1,25.2,29.73,South,189,7.2,16.1,81,0.00,,,0.00,CWS Microserver 1.4,2013-01-08 19:53:00,
2013-01-08 13:58:00,30.2,25.2,29.72,SSW,204,12.8,16.1,81,0.00,,,0.00,CWS Microserver 1.4,2013-01-08 19:58:00,
2013-01-08 14:03:00,30.2,25.2,29.73,SW,232,6.1,15.1,81,0.00,,,0.00,CWS Microserver 1.4,2013-01-08 20:03:00,
2013-01-08 14:08:00,30.4,25.2,29.74,South,186,4.9,14.6,80,0.00,,,0.00,CWS Microserver 1.4,2013-01-08 20:08:00,
2013-01-08 14:13:00,30.6,25.4,29.75,SW,234,3.7,14.6,80,0.00,,,0.00,CWS Microserver 1.4,2013-01-08 20:13:00,
2013-01-08 14:18:00,30.8,25.5,29.74,SSW,194,2.3,14.6,80,0.00,,,0.00,CWS Microserver 1.4,2013-01-08 20:18:00,
2013-01-08 14:28:00,31.0,25.6,29.74,SSW,207,9.7,14.3,80,0.00,,,0.00,CWS Microserver 1.4,2013-01-08 20:28:00,
2013-01-08 14:33:00,31.0,25.5,29.74,SSW,206,9.3,13.7,79,0.00,,,0.00,CWS Microserver 1.4,2013-01-08 20:33:00,
2013-01-08 14:38:00,31.0,25.7,29.75,SSW,201,10.0,13.7,80,0.00,,,0.00,CWS Microserver 1.4,2013-01-08 20:38:00,
2013-01-08 14:43:00,31.1,25.9,29.74,South,190,5.2,14.3,80,0.00,,,0.00,CWS Microserver 1.4,2013-01-08 20:43:00,
2013-01-08 14:48:00,31.1,26.0,29.74,SSW,193,9.3,14.3,81,0.00,,,0.00,CWS Microserver 1.4,2013-01-08 20:48:00,
2013-01-08 14:53:00,31.3,26.2,29.75,SSW,209,8.3,13.3,81,0.00,,,0.00,CWS Microserver 1.4,2013-01-08 20:53:00,
2013-01-08 14:58:00,31.5,26.3,29.75,SSW,195,6.8,13.8,80,0.00,,,0.00,CWS Microserver 1.4,2013-01-08 20:58:00,
2013-01-08 15:03:00,31.5,26.3,29.74,SW,225,8.6,13.8,80,0.00,,,0.00,CWS Microserver 1.4,2013-01-08 21:03:00,
2013-01-08 15:08:00,31.7,26.4,29.74,WSW,252,7.6,12.7,80,0.00,,,0.00,CWS Microserver 1.4,2013-01-08 21:08:00,
2013-01-08 15:13:00,31.7,26.4,29.74,SSW,198,10.0,14.0,80,0.00,,,0.00,CWS Microserver 1.4,2013-01-08 21:13:00,
2013-01-08 15:18:00,31.9,26.5,29.75,South,188,5.3,14.0,80,0.00,,,0.00,CWS Microserver 1.4,2013-01-08 21:18:00,
2013-01-08 15:23:00,31.9,26.4,29.76,SW,215,7.0,13.1,79,0.00,,,0.00,CWS Microserver 1.4,2013-01-08 21:23:00,
2013-01-08 15:28:00,31.9,26.4,29.76,SW,219,5.6,13.9,79,0.00,,,0.00,CWS Microserver 1.4,2013-01-08 21:28:00,
2013-01-08 15:33:00,31.9,26.5,29.76,SW,222,11.4,13.9,80,0.00,,,0.00,CWS Microserver 1.4,2013-01-08 21:33:00,
2013-01-08 15:38:00,31.9,26.4,29.77,SW,224,12.7,18.3,80,0.00,,,0.00,CWS Microserver 1.4,2013-01-08 21:38:00,
2013-01-08 15:43:00,31.7,26.2,29.77,SW,225,15.2,18.3,79,0.00,,,0.00,CWS Microserver 1.4,2013-01-08 21:43:00,
2013-01-08 15:48:00,31.7,25.9,29.77,SW,233,11.4,18.8,79,0.00,,,0.00,CWS Microserver 1.4,2013-01-08 21:48:00,
2013-01-08 15:53:00,31.5,25.8,29.77,SW,219,18.6,20.5,79,0.00,,,0.00,CWS Microserver 1.4,2013-01-08 21:53:00,
2013-01-08 15:58:00,31.3,25.9,29.77,SW,228,12.5,21.8,80,0.00,,,0.00,CWS Microserver 1.4,2013-01-08 21:58:00,
2013-01-08 16:03:00,31.1,25.7,29.77,SW,234,7.8,21.8,80,0.00,,,0.00,CWS Microserver 1.4,2013-01-08 22:03:00,
2013-01-08 16:08:00,31.0,25.9,29.77,SW,234,8.8,18.8,81,0.00,,,0.00,CWS Microserver 1.4,2013-01-08 22:08:00,
2013-01-08 16:13:00,30.8,25.7,29.77,SW,233,12.6,19.9,81,0.00,,,0.00,CWS Microserver 1.4,2013-01-08 22:13:00,
2013-01-08 16:18:00,30.6,25.7,29.78,SW,227,11.8,19.9,81,0.00,,,0.00,CWS Microserver 1.4,2013-01-08 22:18:00,
2013-01-08 16:23:00,30.4,25.2,29.78,WSW,253,7.5,18.1,80,0.00,,,0.00,CWS Microserver 1.4,2013-01-08 22:23:00,
2013-01-08 16:28:00,30.1,24.9,29.77,WSW,237,9.4,16.8,80,0.00,,,0.00,CWS Microserver 1.4,2013-01-08 22:28:00,
2013-01-08 16:33:00,29.9,24.8,29.78,WSW,249,9.8,17.0,81,0.00,,,0.00,CWS Microserver 1.4,2013-01-08 22:33:00,
2013-01-08 16:38:00,29.7,24.6,29.79,SW,225,11.3,17.0,81,0.00,,,0.00,CWS Microserver 1.4,2013-01-08 22:38:00,
2013-01-08 16:43:00,29.3,24.4,29.79,SW,228,12.9,20.4,81,0.00,,,0.00,CWS Microserver 1.4,2013-01-08 22:43:00,
2013-01-08 16:48:00,29.0,24.1,29.79,SW,220,12.2,20.4,81,0.00,,,0.00,CWS Microserver 1.4,2013-01-08 22:48:00,
2013-01-08 16:53:00,28.8,24.1,29.79,SW,232,10.1,18.3,82,0.00,,,0.00,CWS Microserver 1.4,2013-01-08 22:53:00,
2013-01-08 17:03:00,28.3,23.8,29.78,SW,224,14.3,19.3,83,0.00,,,0.00,CWS Microserver 1.4,2013-01-08 23:03:00,
2013-01-08 17:08:00,28.1,23.6,29.78,SW,219,14.0,18.6,83,0.00,,,0.00,CWS Microserver 1.4,2013-01-08 23:08:00,
2013-01-08 17:18:00,27.7,23.2,29.80,WSW,241,8.8,15.5,82,0.00,,,0.00,CWS Microserver 1.4,2013-01-08 23:18:00,
2013-01-08 17:23:00,27.5,23.1,29.80,SW,221,8.1,16.0,83,0.00,,,0.00,CWS Microserver 1.4,2013-01-08 23:23:00,
2013-01-08 17:28:00,27.4,23.0,29.80,WSW,246,8.5,16.0,83,0.00,,,0.00,CWS Microserver 1.4,2013-01-08 23:28:00,
2013-01-08 17:33:00,27.2,22.9,29.80,SW,221,7.9,14.0,83,0.00,,,0.00,CWS Microserver 1.4,2013-01-08 23:33:00,
2013-01-08 17:38:00,26.8,22.5,29.80,WSW,248,6.7,14.0,83,0.00,,,0.00,CWS Microserver 1.4,2013-01-08 23:38:00,
2013-01-08 17:43:00,26.6,22.4,29.80,WSW,245,6.8,13.3,83,0.00,,,0.00,CWS Microserver 1.4,2013-01-08 23:43:00,
2013-01-08 17:48:00,26.6,22.4,29.81,SW,230,7.5,14.6,84,0.00,,,0.00,CWS Microserver 1.4,2013-01-08 23:48:00,
2013-01-08 17:58:00,26.3,22.2,29.81,SW,230,10.8,16.1,84,0.00,,,0.00,CWS Microserver 1.4,2013-01-08 23:58:00,
2013-01-08 18:03:00,26.3,22.1,29.82,SW,218,10.5,17.9,84,0.00,,,0.00,CWS Microserver 1.4,2013-01-09 00:03:00,
2013-01-08 18:08:00,26.3,22.0,29.82,SW,223,12.9,17.9,83,0.00,,,0.00,CWS Microserver 1.4,2013-01-09 00:08:00,
2013-01-08 18:13:00,26.3,22.0,29.82,WSW,248,7.0,16.9,83,0.00,,,0.00,CWS Microserver 1.4,2013-01-09 00:13:00,
2013-01-08 18:18:00,26.3,22.0,29.83,SW,227,9.7,16.9,83,0.00,,,0.00,CWS Microserver 1.4,2013-01-09 00:18:00,
2013-01-08 18:23:00,26.1,21.7,29.84,SW,234,8.3,16.5,83,0.00,,,0.00,CWS Microserver 1.4,2013-01-09 00:23:00,
2013-01-08 18:28:00,25.9,21.5,29.83,West,259,8.9,16.6,83,0.00,,,0.00,CWS Microserver 1.4,2013-01-09 00:28:00,
2013-01-08 18:33:00,26.5,22.0,29.83,WSW,243,14.8,18.9,82,0.00,,,0.00,CWS Microserver 1.4,2013-01-09 00:33:00,
2013-01-08 18:38:00,26.6,21.9,29.83,SW,216,6.8,18.9,82,0.00,,,0.00,CWS Microserver 1.4,2013-01-09 00:38:00,
2013-01-08 18:43:00,26.8,22.0,29.83,WSW,253,10.0,18.1,82,0.00,,,0.00,CWS Microserver 1.4,2013-01-09 00:43:00,
2013-01-08 18:48:00,26.6,21.8,29.84,WSW,242,12.8,17.6,81,0.00,,,0.00,CWS Microserver 1.4,2013-01-09 00:48:00,
2013-01-08 18:53:00,26.3,21.5,29.84,SW,231,11.9,18.7,81,0.00,,,0.00,CWS Microserver 1.4,2013-01-09 00:53:00,
2013-01-08 18:58:00,26.5,21.7,29.84,WSW,248,11.2,20.6,81,0.00,,,0.00,CWS Microserver 1.4,2013-01-09 00:58:00,
2013-01-08 19:03:00,26.5,21.7,29.85,WSW,249,10.9,20.6,81,0.00,,,0.00,CWS Microserver 1.4,2013-01-09 01:03:00,
2013-01-08 19:08:00,26.6,21.8,29.85,WSW,250,10.7,17.8,81,0.00,,,0.00,CWS Microserver 1.4,2013-01-09 01:08:00,
2013-01-08 19:13:00,27.0,22.0,29.85,WSW,251,14.3,16.3,81,0.00,,,0.00,CWS Microserver 1.4,2013-01-09 01:13:00,
2013-01-08 19:18:00,27.2,22.1,29.85,WSW,237,9.1,18.0,80,0.00,,,0.00,CWS Microserver 1.4,2013-01-09 01:18:00,
2013-01-08 19:23:00,27.4,22.2,29.86,WSW,243,8.1,18.0,80,0.00,,,0.00,CWS Microserver 1.4,2013-01-09 01:23:00,
2013-01-08 19:28:00,27.2,22.1,29.85,WSW,243,10.3,17.3,80,0.00,,,0.00,CWS Microserver 1.4,2013-01-09 01:28:00,
2013-01-08 19:33:00,27.4,22.5,29.85,West,260,17.5,22.5,81,0.00,,,0.00,CWS Microserver 1.4,2013-01-09 01:33:00,
2013-01-08 19:38:00,27.5,22.2,29.86,West,266,5.8,22.5,80,0.00,,,0.00,CWS Microserver 1.4,2013-01-09 01:38:00,
2013-01-08 19:43:00,27.5,22.3,29.85,WSW,253,11.6,20.8,80,0.00,,,0.00,CWS Microserver 1.4,2013-01-09 01:43:00,
2013-01-08 19:48:00,27.7,22.4,29.86,WSW,244,4.7,21.4,80,0.00,,,0.00,CWS Microserver 1.4,2013-01-09 01:48:00,
2013-01-08 19:53:00,27.7,22.3,29.86,WSW,258,10.1,21.4,79,0.00,,,0.00,CWS Microserver 1.4,2013-01-09 01:53:00,
2013-01-08 19:58:00,28.1,22.6,29.86,WSW,257,18.2,20.1,79,0.00,,,0.00,CWS Microserver 1.4,2013-01-09 01:58:00,
2013-01-08 20:03:00,27.9,22.4,29.86,West,274,8.0,20.3,79,0.00,,,0.00,CWS Microserver 1.4,2013-01-09 02:03:00,
2013-01-08 20:08:00,27.5,22.2,29.86,West,264,11.4,20.3,80,0.00,,,0.00,CWS Microserver 1.4,2013-01-09 02:08:00,
2013-01-08 20:13:00,27.4,22.1,29.87,West,273,10.9,18.1,80,0.00,,,0.00,CWS Microserver 1.4,2013-01-09 02:13:00,
2013-01-08 20:18:00,27.2,21.9,29.87,West,267,15.5,20.6,80,0.00,,,0.00,CWS Microserver 1.4,2013-01-09 02:18:00,
2013-01-08 20:23:00,27.0,21.6,29.87,West,273,12.8,23.4,79,0.00,,,0.00,CWS Microserver 1.4,2013-01-09 02:23:00,
2013-01-08 20:28:00,27.0,21.9,29.87,West,260,11.0,23.4,81,0.00,,,0.00,CWS Microserver 1.4,2013-01-09 02:28:00,
2013-01-08 20:33:00,27.4,22.2,29.88,West,271,14.5,19.9,80,0.00,,,0.00,CWS Microserver 1.4,2013-01-09 02:33:00,
2013-01-08 20:38:00,27.5,22.3,29.88,West,262,10.0,19.9,80,0.00,,,0.00,CWS Microserver 1.4,2013-01-09 02:38:00,
2013-01-08 20:43:00,27.5,22.2,29.89,West,263,6.5,16.4,80,0.00,,,0.00,CWS Microserver 1.4,2013-01-09 02:43:00,
2013-01-08 20:48:00,27.7,22.5,29.89,West,269,15.2,20.4,80,0.00,,,0.00,CWS Microserver 1.4,2013-01-09 02:48:00,
2013-01-08 20:53:00,27.9,22.4,29.89,WSW,255,10.7,20.4,79,0.00,,,0.00,CWS Microserver 1.4,2013-01-09 02:53:00,
2013-01-08 20:58:00,27.7,22.3,29.89,WSW,257,12.9,17.8,79,0.00,,,0.00,CWS Microserver 1.4,2013-01-09 02:58:00,
2013-01-08 21:03:00,27.5,22.2,29.90,West,278,6.9,19.0,80,0.00,,,0.00,CWS Microserver 1.4,2013-01-09 03:03:00,
2013-01-08 21:08:00,27.7,22.4,29.90,West,264,12.0,19.0,80,0.00,,,0.00,CWS Microserver 1.4,2013-01-09 03:08:00,
2013-01-08 21:13:00,27.4,22.1,29.90,WSW,245,7.6,17.4,80,0.00,,,0.00,CWS Microserver 1.4,2013-01-09 03:13:00,
2013-01-08 21:18:00,27.4,22.1,29.91,WSW,247,12.2,15.8,80,0.00,,,0.00,CWS Microserver 1.4,2013-01-09 03:18:00,
2013-01-08 21:23:00,27.5,22.4,29.91,WSW,257,13.3,15.5,81,0.00,,,0.00,CWS Microserver 1.4,2013-01-09 03:23:00,
2013-01-08 21:28:00,28.1,23.0,29.91,WSW,257,14.6,18.0,81,0.00,,,0.00,CWS Microserver 1.4,2013-01-09 03:28:00,
2013-01-08 21:33:00,28.6,23.2,29.91,WSW,246,11.8,18.0,79,0.00,,,0.00,CWS Microserver 1.4,2013-01-09 03:33:00,
2013-01-08 21:38:00,28.8,23.2,29.92,West,268,11.0,17.6,79,0.00,,,0.00,CWS Microserver 1.4,2013-01-09 03:38:00,
2013-01-08 21:43:00,28.8,23.3,29.92,West,259,6.8,17.1,79,0.00,,,0.00,CWS Microserver 1.4,2013-01-09 03:43:00,
2013-01-08 21:48:00,29.2,23.6,29.92,West,279,14.4,19.3,79,0.00,,,0.00,CWS Microserver 1.4,2013-01-09 03:48:00,
2013-01-08 21:53:00,29.5,23.8,29.92,West,266,13.5,19.3,79,0.00,,,0.00,CWS Microserver 1.4,2013-01-09 03:53:00,
2013-01-08 21:58:00,29.5,23.8,29.92,West,274,7.5,19.2,79,0.00,,,0.00,CWS Microserver 1.4,2013-01-09 03:58:00,
2013-01-08 22:03:00,29.9,24.3,29.92,WSW,252,15.8,18.5,79,0.00,,,0.00,CWS Microserver 1.4,2013-01-09 04:03:00,
2013-01-08 22:08:00,30.4,24.5,29.93,WSW,249,12.7,18.5,78,0.00,,,0.00,CWS Microserver 1.4,2013-01-09 04:08:00,
2013-01-08 22:13:00,30.8,24.7,29.93,West,272,13.9,19.1,78,0.00,,,0.00,CWS Microserver 1.4,2013-01-09 04:13:00,
2013-01-08 22:18:00,31.0,24.9,29.93,WSW,253,15.9,19.1,78,0.00,,,0.00,CWS Microserver 1.4,2013-01-09 04:18:00,
2013-01-08 22:23:00,31.0,24.9,29.93,West,274,5.5,18.7,78,0.00,,,0.00,CWS Microserver 1.4,2013-01-09 04:23:00,
2013-01-08 22:28:00,30.8,24.8,29.94,WSW,248,9.3,18.7,78,0.00,,,0.00,CWS Microserver 1.4,2013-01-09 04:28:00,
2013-01-08 22:33:00,30.8,24.8,29.94,West,267,14.9,16.2,78,0.00,,,0.00,CWS Microserver 1.4,2013-01-09 04:33:00,
2013-01-08 22:38:00,31.0,24.9,29.94,West,266,14.4,17.6,77,0.00,,,0.00,CWS Microserver 1.4,2013-01-09 04:38:00,
2013-01-08 22:43:00,31.0,24.9,29.94,WSW,256,11.2,17.8,78,0.00,,,0.00,CWS Microserver 1.4,2013-01-09 04:43:00,
2013-01-08 22:48:00,31.0,25.0,29.95,West,264,14.0,17.8,78,0.00,,,0.00,CWS Microserver 1.4,2013-01-09 04:48:00,
2013-01-08 22:53:00,31.1,25.0,29.95,West,269,10.5,17.6,78,0.00,,,0.00,CWS Microserver 1.4,2013-01-09 04:53:00,
2013-01-08 22:58:00,31.3,25.1,29.95,West,263,11.6,18.2,77,0.00,,,0.00,CWS Microserver 1.4,2013-01-09 04:58:00,
2013-01-08 23:03:00,31.3,25.1,29.96,West,278,10.8,20.9,77,0.00,,,0.00,CWS Microserver 1.4,2013-01-09 05:03:00,
2013-01-08 23:08:00,31.3,25.1,29.96,West,262,17.9,20.9,77,0.00,,,0.00,CWS Microserver 1.4,2013-01-09 05:08:00,
2013-01-08 23:13:00,31.5,25.3,29.96,West,271,9.6,20.9,77,0.00,,,0.00,CWS Microserver 1.4,2013-01-09 05:13:00,
2013-01-08 23:18:00,31.5,25.3,29.96,West,280,11.5,21.0,77,0.00,,,0.00,CWS Microserver 1.4,2013-01-09 05:18:00,
2013-01-08 23:23:00,31.7,25.4,29.96,West,260,11.9,21.0,77,0.00,,,0.00,CWS Microserver 1.4,2013-01-09 05:23:00,
2013-01-08 23:28:00,31.5,25.3,29.97,West,269,9.5,18.5,77,0.00,,,0.00,CWS Microserver 1.4,2013-01-09 05:28:00,
2013-01-08 23:33:00,31.7,25.6,29.97,WSW,243,4.9,17.5,77,0.00,,,0.00,CWS Microserver 1.4,2013-01-09 05:33:00,
2013-01-08 23:43:00,32.1,25.7,29.98,West,274,15.7,20.0,76,0.00,,,0.00,CWS Microserver 1.4,2013-01-09 05:43:00,
2013-01-08 23:48:00,32.3,25.6,29.98,West,261,10.2,18.0,76,0.00,,,0.00,CWS Microserver 1.4,2013-01-09 05:48:00,
2013-01-08 23:53:00,32.5,25.8,29.98,West,281,9.3,18.0,76,0.00,,,0.00,CWS Microserver 1.4,2013-01-09 05:53:00,
2013-01-08 23:58:00,32.7,25.8,29.98,West,263,9.7,18.6,75,0.00,,,0.00,CWS Microserver 1.4,2013-01-09 05:58:00,